Location: Clair
(33.8067°N, 117.9845°W)
Time: 17:11:30
(UTC+00:00)

Cosmos 1869 - Pass Details

Date: 14 February 2026
Orbit: 447 x 473 km, 82.5° (Epoch: 8 March)

Event Time Altitude Azimuth Distance (km) Brightness Sun altitude
Rises 14:00:51 0° 206° (SSW) 2,501 6.5 -8.2°
Reaches altitude 10° 14:03:07 10° 218° (SW) 1,624 5.5 -7.7°
Maximum altitude 14:06:15 29° 280° (W) 879 3.8 -7.1°
Drops below altitude 10° 14:09:23 10° 343° (NNW) 1,620 5.4 -6.5°
Sets 14:11:39 0° 355° (N) 2,494 6.5 -6.0°
